Ilorin International Airport

Airport
ICAO code: 
DNIL
IATA Code: 
ILR
Summary
ICAO Region: 
AFI
Territory: 
Location: 
Obansunwa, Kwara State
Serving: 
Ilorin
Elevation: 
1126 ft
Coordinates: 
Aerial View: 
8° 26' 25.008" N, 4° 29' 39.984" E
Metar
Observation
DNIL 192200Z 01004KT CAVOK 23/08 Q1015
Station
Ilorin
Date/Time
2022-01-19 22:00:00
Wind direction
10°
Wind speed
04 kts
Lowest cloud amount
clouds and visibility OK
Temperature
23°C
Dew point
8°C
Humidity
38%
QNH
1015 hPa
Weather condition
n/a

Ilorin International Airport is an airport serving Ilorin, a city in Kwara State of Nigeria.

Climatology

Tropical savanna climate (Köppen climate classification Aw)

Runways

Designator Length Width Surface Rops
5/23 3100 60 ASP No/No
Airport map: 
Aerial View: 

SKYbrary Partners:

Safety knowledge contributed by: